1494691201.1,29673,15.06,73446.0,0.53,-1.05,-1.09,0,*4E
1494691202.34,29674,15.06,73444.3,0.51,-0.85,-0.93,0,*40
1494691203.58,29675,15.06,73444.5,0.51,-0.93,-0.85,0,*41
1494691204.79,29676,15.06,73442.5,0.53,-0.85,-0.85,0,*47
1494691205.97,29677,15.06,73442.0,0.53,-0.73,-0.73,0,*46
1494691207.14,29678,15.06,73438.0,0.53,-0.73,-0.81,0,*44
1494691208.36,29679,15.06,73436.8,0.51,-0.73,-0.85,0,*43
1494691209.56,29680,15.06,73434.8,0.51,-0.73,-0.73,0,*4C
1494691210.77,29681,15.06,73438.3,0.53,-0.93,-0.85,0,*48
1494691211.98,29682,15.06,73442.3,0.53,-0.93,-0.85,0,*4B
1494691213.22,29683,15.06,73438.3,0.51,-0.93,-0.93,0,*4F
1494691214.46,29684,15.06,73442.5,0.51,-0.85,-0.85,0,*48
1494691215.71,29685,15.06,73438.5,0.51,-0.85,-0.85,0,*49
1494691216.88,29686,15.06,73438.3,0.53,-0.73,-0.73,0,*48
1494691218.05,29687,15.06,73438.0,0.53,-0.57,-0.69,0,*44
1494691219.25,29688,15.06,73438.3,0.51,-0.69,-0.69,0,*44
1494691220.42,29689,15.06,73442.3,0.53,-0.73,-0.69,0,*4C
1494691221.59,29690,15.06,73440.5,0.53,-0.73,-0.69,0,*44
1494691222.76,29691,15.06,73438.0,0.53,-0.73,-0.73,0,*4E
1494691223.94,29692,15.06,73440.8,0.53,-0.73,-0.73,0,*4D
1494691225.11,29693,15.06,73440.3,0.53,-0.69,-0.73,0,*47
1494691226.32,29694,15.06,73444.3,0.53,-0.85,-0.85,0,*4B
1494691227.49,29695,15.06,73442.5,0.53,-0.81,-0.73,0,*47
1494691228.69,29696,15.06,73442.5,0.51,-0.69,-0.81,0,*4D
1494691229.91,29697,15.06,73442.0,0.53,-0.85,-0.85,0,*48
1494691231.12,29698,15.06,73438.8,0.53,-0.85,-0.93,0,*40
1494691232.32,29699,15.06,73438.5,0.51,-0.73,-0.81,0,*49
1494691233.54,29700,15.06,73440.3,0.51,-0.81,-0.85,0,*41
1494691234.73,29701,15.06,73440.3,0.51,-0.61,-0.69,0,*4C
1494691235.92,29702,15.06,73438.3,0.51,-0.49,-0.57,0,*48
1494691237.11,29703,15.06,73436.0,0.51,-0.61,-0.61,0,*46
1494691238.3,29704,15.06,73434.8,0.51,-0.57,-0.61,0,*44
1494691239.49,29705,15.06,73432.3,0.51,-0.61,-0.61,0,*40
1494691240.65,29706,15.06,73438.5,0.53,-0.61,-0.61,0,*41
1494691241.81,29707,15.06,73434.8,0.53,-0.49,-0.57,0,*4F
1494691242.97,29708,15.06,73440.0,0.53,-0.61,-0.61,0,*4F
1494691244.17,29709,15.06,73442.0,0.51,-0.49,-0.49,0,*4C
1494691245.33,29710,15.06,73446.8,0.53,-0.57,-0.57,0,*46
1494691246.51,29711,15.06,73446.5,0.53,-0.57,-0.49,0,*48
1494691247.67,29712,15.06,73440.3,0.53,-0.49,-0.49,0,*44
1494691248.87,29713,15.06,73432.8,0.51,-0.45,-0.49,0,*4B
1494691250.04,29714,15.06,73432.3,0.53,-0.57,-0.61,0,*47
1494691251.21,29715,15.06,73432.3,0.53,-0.69,-0.73,0,*48
1494691252.37,29716,15.06,73432.5,0.53,-0.61,-0.73,0,*43
1494691253.57,29717,15.06,73442.0,0.55,-0.69,-0.77,0,*48
1494691254.73,29718,15.06,73438.3,0.53,-0.61,-0.61,0,*4E
1494691255.89,29719,15.06,73436.3,0.53,-0.69,-0.61,0,*47
1494691257.05,29720,15.06,73430.0,0.53,-0.61,-0.69,0,*4D
1494691258.21,29721,15.06,73430.8,0.53,-0.61,-0.69,0,*4C
1494691259.37,29722,15.06,73434.0,0.53,-0.61,-0.57,0,*42
1494691260.54,29723,15.06,73438.8,0.53,-0.49,-0.49,0,*46
1494691261.71,29724,15.06,73438.8,0.53,-0.49,-0.57,0,*4E
1494691262.87,29725,15.06,73436.5,0.53,-0.57,-0.57,0,*40
1494691264.04,29726,15.06,73432.3,0.53,-0.69,-0.61,0,*4B
1494691265.2,29727,15.06,73438.3,0.53,-0.61,-0.69,0,*4A
1494691266.37,29728,15.06,73436.5,0.53,-0.73,-0.73,0,*4D
1494691267.55,29729,15.06,73438.0,0.53,-0.73,-0.73,0,*4C
1494691268.71,29730,15.06,73432.0,0.53,-0.61,-0.69,0,*4C
1494691269.88,29731,15.06,73434.3,0.53,-0.69,-0.69,0,*45
1494691271.03,29732,15.06,73430.3,0.53,-0.61,-0.61,0,*46
1494691272.2,29733,15.06,73432.5,0.53,-0.69,-0.69,0,*47
1494691273.37,29734,15.06,73434.0,0.53,-0.73,-0.73,0,*40
1494691274.54,29735,15.06,73428.3,0.53,-0.61,-0.69,0,*49
1494691275.7,29736,15.06,73432.0,0.53,-0.61,-0.69,0,*4A
1494691276.86,29737,15.06,73438.0,0.53,-0.49,-0.57,0,*4C
1494691278.02,29738,15.06,73434.3,0.53,-0.49,-0.57,0,*43
1494691279.19,29739,15.06,73434.8,0.53,-0.49,-0.57,0,*42
1494691280.36,29740,15.06,73438.8,0.53,-0.57,-0.69,0,*4E
1494691281.53,29741,15.06,73436.3,0.53,-0.81,-0.81,0,*42
1494691282.77,29742,15.06,73440.5,0.55,-0.89,-0.89,0,*47
1494691283.96,29743,15.06,73436.8,0.55,-0.65,-0.65,0,*46
1494691285.17,29744,15.06,73432.3,0.53,-0.85,-0.85,0,*47
1494691286.34,29745,15.06,73428.8,0.53,-0.73,-0.73,0,*46
1494691287.54,29746,15.06,73430.0,0.51,-0.81,-0.81,0,*47
1494691288.74,29747,15.06,73434.3,0.53,-0.73,-0.85,0,*4D
1494691289.91,29748,15.06,73432.5,0.53,-0.73,-0.73,0,*4B
1494691291.07,29749,15.06,73430.3,0.53,-0.61,-0.69,0,*42
1494691292.27,29750,15.06,73428.0,0.51,-0.49,-0.57,0,*4F
1494691293.43,29751,15.06,73428.3,0.53,-0.61,-0.69,0,*4B
1494691294.6,29752,15.06,73436.0,0.53,-0.81,-0.73,0,*4D
1494691295.77,29753,15.06,73440.3,0.53,-0.61,-0.73,0,*42
1494691296.96,29754,15.06,73438.8,0.53,-0.73,-0.85,0,*4F
1494691298.17,29755,15.06,73434.5,0.53,-0.93,-0.97,0,*43
1494691299.34,29756,15.06,73432.0,0.53,-0.81,-0.81,0,*44
1494691300.53,29757,15.06,73434.3,0.53,-0.73,-0.85,0,*4C
1494691301.7,29758,15.06,73438.8,0.53,-0.73,-0.73,0,*4A
1494691302.88,29759,15.06,73438.3,0.53,-0.73,-0.73,0,*4B
1494691304.07,29760,15.06,73440.3,0.53,-0.81,-0.93,0,*42
1494691305.24,29761,15.06,73438.3,0.53,-0.73,-0.69,0,*4B
1494691306.41,29762,15.06,73442.0,0.53,-0.69,-0.61,0,*4B
1494691307.58,29763,15.06,73436.8,0.53,-0.73,-0.81,0,*4F
1494691308.74,29764,15.06,73436.3,0.53,-0.61,-0.73,0,*46
1494691309.91,29765,15.06,73438.5,0.53,-0.69,-0.69,0,*44
1494691311.1,29766,15.06,73444.0,0.51,-0.61,-0.73,0,*46
1494691312.27,29767,15.06,73448.0,0.53,-0.73,-0.81,0,*4B
1494691313.51,29768,15.06,73448.3,0.51,-0.93,-0.97,0,*4F
1494691314.75,29769,15.06,73448.5,0.51,-0.93,-0.97,0,*4E
1494691315.97,29770,15.06,73444.8,0.53,-0.93,-1.05,0,*7E
1494691317.22,29771,15.06,73446.5,0.51,-0.97,-0.97,0,*43
1494691318.46,29772,15.06,73442.8,0.51,-0.97,-0.93,0,*44
1494691319.7,29773,15.06,73444.5,0.51,-0.85,-0.85,0,*41
1494691320.88,29774,15.06,73452.5,0.53,-0.73,-0.81,0,*49
1494691322.11,29775,15.06,73450.3,0.51,-0.93,-0.93,0,*47
1494691323.32,29776,15.06,73448.5,0.51,-0.81,-0.81,0,*44
1494691324.54,29777,15.06,73450.5,0.51,-0.81,-0.85,0,*41
1494691325.74,29778,15.06,73448.3,0.51,-1.21,-1.25,0,*4E
1494691327.0,29779,15.06,73448.5,0.47,-1.35,-1.35,0,*4C
1494691328.26,29780,15.06,73446.8,0.47,-1.39,-1.47,0,*43
1494691329.49,29781,15.06,73446.0,0.47,-1.13,-1.17,0,*4F
1494691330.75,29782,15.06,73452.8,0.47,-1.13,-1.13,0,*48
1494691331.98,29783,15.06,73454.8,0.47,-1.09,-1.17,0,*46
1494691333.22,29784,15.06,73454.0,0.45,-1.39,-1.47,0,*45
1494691334.4,29785,15.06,73454.3,0.45,-1.71,-1.75,0,*49
1494691335.58,29786,15.06,73452.0,0.45,-1.59,-1.59,0,*4E
1494691336.75,29787,15.06,73452.0,0.43,-1.63,-1.55,0,*4C
1494691337.95,29788,15.06,73448.3,0.43,-1.51,-1.43,0,*45
1494691339.13,29789,15.06,73446.3,0.43,-1.29,-1.29,0,*47
1494691340.31,29790,15.06,73442.3,0.43,-1.21,-1.29,0,*47
1494691341.52,29791,15.06,73444.0,0.41,-1.21,-1.29,0,*44
1494691342.7,29792,15.06,73442.5,0.43,-1.21,-1.29,0,*45
1494691343.9,29793,15.06,73440.0,0.41,-1.29,-1.33,0,*45
1494691345.13,29794,15.06,73436.8,0.41,-1.43,-1.51,0,*4A
1494691346.39,29795,15.06,73438.3,0.37,-1.39,-1.39,0,*49
1494691347.62,29796,15.06,73434.8,0.39,-1.43,-1.43,0,*44
1494691348.86,29797,15.06,73440.5,0.39,-1.47,-1.47,0,*45
1494691350.09,29798,15.06,73440.5,0.39,-1.35,-1.35,0,*4A
1494691351.27,29799,15.06,73438.3,0.39,-1.25,-1.33,0,*4C
1494691352.47,29800,15.06,73444.5,0.39,-1.47,-1.59,0,*4B
1494691353.71,29801,15.06,73444.0,0.39,-1.39,-1.39,0,*45
1494691354.97,29802,15.06,73446.8,0.37,-1.35,-1.35,0,*48
1494691356.17,29803,15.06,73444.0,0.37,-1.29,-1.29,0,*49
1494691357.38,29804,15.06,73446.3,0.37,-1.25,-1.29,0,*42
1494691358.56,29805,15.06,73444.0,0.35,-1.29,-1.29,0,*4D
1494691359.79,29806,15.06,73446.5,0.37,-1.21,-1.13,0,*4D
1494691361.02,29807,15.06,73446.8,0.39,-1.09,-1.09,0,*43
1494691362.22,29808,15.06,73446.3,0.37,-1.21,-1.25,0,*46
1494691363.42,29809,15.06,73446.5,0.37,-1.51,-1.55,0,*47
1494691364.63,29810,15.06,73448.0,0.37,-1.63,-1.71,0,*48
1494691365.82,29811,15.06,73448.8,0.37,-1.51,-1.59,0,*42
1494691367.01,29812,15.06,73450.5,0.35,-1.71,-1.63,0,*48
1494691368.19,29813,15.06,73448.0,0.35,-1.51,-1.51,0,*4A
1494691369.41,29814,15.06,73446.0,0.35,-1.29,-1.35,0,*40
1494691370.64,29815,15.06,73444.3,0.35,-1.35,-1.39,0,*40
1494691371.88,29816,15.06,73444.5,0.35,-1.35,-1.47,0,*4A
1494691373.09,29817,15.06,73444.3,0.35,-1.47,-1.51,0,*49
1494691374.29,29818,15.06,73446.3,0.35,-1.51,-1.47,0,*46
1494691375.5,29819,15.06,73448.0,0.33,-1.55,-1.51,0,*42
1494691376.71,29820,15.06,73446.3,0.35,-1.47,-1.29,0,*42
1494691377.91,29821,15.06,73444.3,0.33,-1.63,-1.55,0,*48
1494691379.11,29822,15.06,73442.0,0.33,-1.51,-1.51,0,*4E
1494691380.32,29823,15.06,73446.5,0.33,-1.33,-1.29,0,*44
1494691381.5,29824,15.06,73442.8,0.35,-1.29,-1.25,0,*42
1494691382.71,29825,15.06,73440.0,0.35,-1.35,-1.29,0,*42
1494691383.94,29826,15.06,73444.8,0.33,-1.39,-1.33,0,*40
1494691385.15,29827,15.06,73442.5,0.33,-1.33,-1.29,0,*40
1494691386.41,29828,15.06,73442.0,0.33,-1.39,-1.39,0,*44
1494691387.64,29829,15.06,73436.3,0.33,-1.39,-1.51,0,*4B
1494691388.85,29830,15.06,73432.5,0.31,-1.43,-1.51,0,*4C
1494691390.05,29831,15.06,73434.0,0.31,-1.51,-1.43,0,*4D
1494691391.31,29832,15.06,73432.0,0.29,-1.43,-1.43,0,*44
1494691392.55,29833,15.06,73432.3,0.31,-1.43,-1.39,0,*41
1494691393.81,29834,15.06,73432.8,0.29,-1.35,-1.35,0,*42
1494691395.02,29835,15.06,73434.8,0.29,-1.33,-1.21,0,*40
1494691396.26,29836,15.06,73436.8,0.29,-1.33,-1.35,0,*46
1494691397.45,29837,15.06,73436.8,0.31,-1.29,-1.29,0,*48
1494691398.65,29838,15.06,73438.5,0.29,-1.33,-1.33,0,*4E
1494691399.87,29839,15.06,73438.5,0.29,-1.29,-1.29,0,*4F
1494691401.05,29840,15.06,73438.3,0.31,-1.21,-1.21,0,*48
1494691402.29,29841,15.06,73444.0,0.29,-1.33,-1.35,0,*46
1494691403.53,29842,15.06,73446.3,0.29,-1.33,-1.35,0,*45
1494691404.79,29843,15.06,73440.0,0.29,-1.43,-1.35,0,*43
1494691406.0,29844,15.06,73436.5,0.29,-1.21,-1.21,0,*45
1494691407.26,29845,15.06,73438.5,0.29,-1.09,-1.09,0,*44
1494691408.48,29846,15.06,73442.3,0.31,-1.09,-1.01,0,*46
1494691409.74,29847,15.06,73440.3,0.29,-0.97,-1.05,0,*7C
1494691410.99,29848,15.06,73440.3,0.29,-0.97,-0.93,0,*4D
1494691412.23,29849,15.06,73444.3,0.29,-0.93,-0.93,0,*48
1494691413.46,29850,15.06,73442.0,0.31,-1.01,-1.01,0,*49
1494691414.72,29851,15.06,73446.0,0.29,-1.05,-1.05,0,*41
1494691415.97,29852,15.06,73442.8,0.29,-0.85,-0.85,0,*42
1494691417.22,29853,15.06,73440.8,0.29,-0.97,-1.05,0,*79
1494691418.44,29854,15.06,73442.8,0.31,-0.93,-0.93,0,*4D
1494691419.66,29855,15.06,73440.5,0.29,-0.85,-0.81,0,*41
1494691420.86,29856,15.06,73442.0,0.29,-0.81,-0.81,0,*46
1494691422.06,29857,15.06,73446.3,0.31,-0.81,-0.89,0,*46
1494691423.28,29858,15.06,73446.8,0.31,-0.89,-0.89,0,*41
1494691424.49,29859,15.06,73444.3,0.31,-0.93,-0.93,0,*40
1494691425.72,29860,15.06,73442.0,0.29,-0.81,-0.85,0,*47
1494691426.89,29861,15.06,73442.3,0.31,-0.69,-0.77,0,*44
1494691428.06,29862,15.06,73444.0,0.31,-0.65,-0.69,0,*44
1494691429.24,29863,15.06,73442.3,0.31,-0.65,-0.65,0,*49
1494691430.41,29864,15.06,73440.5,0.31,-0.65,-0.69,0,*42
1494691431.58,29865,15.06,73442.5,0.31,-0.57,-0.65,0,*4E
1494691432.75,29866,15.06,73444.3,0.31,-0.77,-0.65,0,*4F
1494691433.92,29867,15.06,73440.5,0.31,-0.57,-0.65,0,*4C
1494691435.11,29868,15.06,73440.5,0.33,-0.57,-0.57,0,*40
1494691436.31,29869,15.06,73446.5,0.33,-0.53,-0.53,0,*41
1494691437.48,29870,15.06,73444.5,0.35,-0.49,-0.53,0,*44
1494691438.67,29871,15.06,73444.8,0.33,-0.65,-0.65,0,*48
1494691439.87,29872,15.06,73442.3,0.33,-0.69,-0.77,0,*44
1494691441.05,29873,15.06,73444.5,0.35,-0.69,-0.69,0,*4C
1494691442.24,29874,15.06,73444.5,0.33,-0.57,-0.69,0,*40
1494691443.41,29875,15.06,73444.5,0.35,-0.61,-0.73,0,*49
1494691444.61,29876,15.06,73444.0,0.33,-0.69,-0.69,0,*4F
1494691445.78,29877,15.06,73444.0,0.35,-0.61,-0.61,0,*48
1494691446.97,29878,15.06,73446.5,0.33,-0.65,-0.65,0,*41
1494691448.16,29879,15.06,73448.3,0.33,-0.57,-0.69,0,*4D
1494691449.36,29880,15.06,73446.3,0.33,-0.57,-0.65,0,*47
1494691450.53,29881,15.06,73444.5,0.35,-0.53,-0.61,0,*40
1494691451.72,29882,15.06,73448.5,0.33,-0.53,-0.65,0,*41
1494691452.9,29883,15.06,73440.5,0.35,-0.49,-0.49,0,*43
1494691454.07,29884,15.06,73446.8,0.35,-0.41,-0.53,0,*47
1494691455.26,29885,15.06,73444.0,0.37,-0.61,-0.61,0,*47
1494691456.45,29886,15.06,73446.8,0.37,-0.53,-0.53,0,*44
1494691457.64,29887,15.06,73444.3,0.37,-0.53,-0.61,0,*44
1494691458.82,29888,15.06,73446.0,0.35,-0.49,-0.53,0,*43
1494691460.01,29889,15.06,73446.5,0.37,-0.53,-0.61,0,*4A
1494691461.2,29890,15.06,73446.8,0.37,-0.53,-0.61,0,*42
1494691462.37,29891,15.06,73444.5,0.39,-0.49,-0.49,0,*4C
1494691463.56,29892,15.06,73446.5,0.37,-0.61,-0.65,0,*45
1494691464.75,29893,15.06,73442.5,0.37,-0.53,-0.65,0,*45
1494691465.92,29894,15.06,73440.0,0.39,-0.57,-0.61,0,*4C
1494691467.11,29895,15.06,73442.0,0.37,-0.53,-0.65,0,*43
1494691468.3,29896,15.06,73446.3,0.37,-0.53,-0.61,0,*44
1494691469.5,29897,15.06,73444.8,0.37,-0.53,-0.49,0,*4F
1494691470.67,29898,15.06,73444.8,0.39,-0.45,-0.45,0,*45
1494691471.85,29899,15.06,73446.3,0.39,-0.37,-0.45,0,*41
1494691473.02,29900,15.06,73440.3,0.39,-0.37,-0.37,0,*45
1494691474.2,29901,15.06,73444.8,0.39,-0.37,-0.37,0,*44
1494691475.38,29902,15.06,73442.5,0.39,-0.37,-0.37,0,*47
1494691476.55,29903,15.06,73442.5,0.39,-0.49,-0.49,0,*46
1494691477.72,29904,15.06,73442.5,0.39,-0.37,-0.49,0,*48
1494691478.9,29905,15.06,73444.0,0.39,-0.37,-0.45,0,*45
1494691480.07,29906,15.06,73444.3,0.39,-0.37,-0.37,0,*43
1494691481.25,29907,15.06,73444.0,0.39,-0.45,-0.37,0,*47
1494691482.42,29908,15.06,73444.0,0.39,-0.37,-0.37,0,*4D
1494691483.62,29909,15.06,73446.5,0.41,-0.33,-0.41,0,*46
1494691484.82,29910,15.06,73446.5,0.41,-0.41,-0.41,0,*4B
1494691486.01,29911,15.06,73446.3,0.41,-0.45,-0.53,0,*4D
1494691487.19,29912,15.06,73442.5,0.43,-0.41,-0.45,0,*4F
1494691488.38,29913,15.06,73444.5,0.41,-0.53,-0.57,0,*4C
1494691489.55,29914,15.06,73444.5,0.43,-0.41,-0.53,0,*4E
1494691490.74,29915,15.06,73442.5,0.41,-0.69,-0.77,0,*41
1494691491.96,29916,15.0,73440.0,0.43,-0.89,-0.89,0,*4F
1494691493.15,29917,15.06,73440.5,0.43,-0.81,-0.93,0,*4D
1494691494.34,29918,15.06,73444.3,0.41,-0.57,-0.65,0,*42
1494691495.53,29919,15.06,73444.5,0.41,-0.57,-0.57,0,*42
1494691496.73,29920,15.06,73444.3,0.41,-0.69,-0.77,0,*47
1494691497.92,29921,15.06,73440.8,0.41,-0.69,-0.65,0,*45
1494691499.11,29922,15.06,73440.5,0.41,-0.57,-0.53,0,*4E
1494691500.27,29923,15.06,73438.8,0.43,-0.65,-0.65,0,*49
1494691501.47,29924,15.06,73438.5,0.41,-0.53,-0.57,0,*48
1494691502.64,29925,15.06,73438.8,0.43,-0.53,-0.57,0,*4B
1494691503.82,29926,15.06,73438.5,0.43,-0.41,-0.41,0,*4C
1494691504.99,29927,15.06,73438.3,0.43,-0.45,-0.33,0,*4C
1494691506.15,29928,15.06,73436.3,0.43,-0.45,-0.53,0,*45
1494691507.35,29929,15.06,73436.5,0.41,-0.53,-0.53,0,*41
1494691508.54,29930,15.06,73438.0,0.41,-0.57,-0.53,0,*4D
1494691509.73,29931,15.06,73448.3,0.41,-0.65,-0.57,0,*49
1494691510.89,29932,15.06,73446.0,0.43,-0.65,-0.65,0,*49
1494691512.08,29933,15.06,73448.0,0.43,-0.77,-0.89,0,*49
1494691513.34,29934,15.06,73444.5,0.41,-1.01,-1.01,0,*4D
1494691514.53,29935,15.06,73444.8,0.43,-0.89,-0.81,0,*46
1494691515.7,29936,15.06,73444.8,0.43,-0.77,-0.81,0,*44
1494691516.87,29937,15.06,73446.0,0.43,-0.65,-0.69,0,*40
1494691518.06,29938,15.06,73442.0,0.41,-0.53,-0.53,0,*41
1494691519.25,29939,15.06,73442.0,0.41,-0.57,-0.53,0,*44
1494691520.42,29940,15.06,73434.0,0.43,-0.45,-0.53,0,*4B
1494691521.59,29941,15.06,73436.5,0.43,-0.45,-0.45,0,*4D
1494691522.75,29942,15.06,73436.5,0.43,-0.53,-0.53,0,*4E
1494691523.94,29943,15.06,73438.5,0.41,-0.65,-0.65,0,*4D
1494691525.11,29944,15.06,73436.5,0.43,-0.69,-0.65,0,*44
1494691526.28,29945,15.06,73436.5,0.43,-0.77,-0.77,0,*49
1494691527.45,29946,15.06,73436.5,0.43,-0.69,-0.69,0,*4A
1494691528.62,29947,15.06,73434.3,0.43,-0.65,-0.69,0,*47
1494691529.79,29948,15.06,73436.8,0.43,-0.57,-0.65,0,*45
1494691530.95,29949,15.06,73436.8,0.43,-0.45,-0.45,0,*45
1494691532.12,29950,15.06,73432.8,0.43,-0.53,-0.53,0,*4D
1494691533.29,29951,15.06,73434.0,0.43,-0.57,-0.57,0,*4C
1494691534.46,29952,15.06,73434.0,0.43,-0.65,-0.69,0,*43
1494691535.63,29953,15.0,73434.8,0.45,-0.61,-0.73,0,*4B
1494691536.81,29954,15.0,73434.5,0.45,-0.65,-0.73,0,*48
1494691537.97,29955,15.0,73434.3,0.45,-0.61,-0.65,0,*4A
1494691539.14,29956,15.06,73438.0,0.45,-0.65,-0.65,0,*4D
1494691540.31,29957,15.06,73432.8,0.45,-0.65,-0.65,0,*4C
1494691541.48,29958,15.06,73434.8,0.45,-0.53,-0.53,0,*43
1494691542.68,29959,15.06,73434.0,0.47,-0.53,-0.61,0,*41
1494691543.85,29960,15.06,73432.3,0.45,-0.53,-0.53,0,*48
1494691545.03,29961,15.06,73432.8,0.45,-0.73,-0.73,0,*49
1494691546.22,29962,15.06,73434.0,0.47,-0.65,-0.65,0,*48
1494691547.4,29963,15.06,73438.5,0.45,-0.53,-0.53,0,*4B
1494691548.62,29964,15.06,73436.8,0.47,-0.77,-0.85,0,*43
1494691549.82,29965,15.06,73434.8,0.47,-0.73,-0.73,0,*4F
1494691551.04,29966,15.06,73440.0,0.45,-0.97,-0.97,0,*4E
1494691552.26,29967,15.06,73436.0,0.45,-0.89,-0.97,0,*40
1494691553.48,29968,15.06,73432.8,0.45,-0.97,-0.89,0,*4F
1494691554.71,29969,15.06,73432.0,0.43,-1.01,-1.05,0,*43
1494691555.95,29970,15.06,73428.0,0.41,-0.89,-0.93,0,*46
1494691557.17,29971,15.0,73418.0,0.43,-0.89,-0.89,0,*4E
1494691558.34,29972,15.06,73420.0,0.43,-0.77,-0.77,0,*4D
1494691559.51,29973,15.06,73422.5,0.43,-0.77,-0.77,0,*4C
1494691560.7,29974,15.06,73420.8,0.41,-0.69,-0.69,0,*49
1494691561.87,29975,15.0,73420.3,0.43,-0.57,-0.57,0,*4A
1494691563.04,29976,15.0,73416.8,0.43,-0.41,-0.45,0,*4D
1494691564.22,29977,15.06,73420.8,0.43,-0.45,-0.33,0,*49
1494691565.38,29978,15.0,73422.0,0.43,-0.33,-0.33,0,*47
1494691566.55,29979,15.06,73420.5,0.43,-0.53,-0.45,0,*41
1494691567.73,29980,15.06,73420.5,0.43,-0.41,-0.45,0,*44
1494691568.9,29981,15.06,73420.5,0.45,-0.49,-0.49,0,*47
1494691570.08,29982,15.06,73424.8,0.45,-0.41,-0.41,0,*44
1494691571.26,29983,15.0,73422.3,0.45,-0.29,-0.37,0,*4A
1494691572.43,29984,15.06,73418.5,0.43,-0.41,-0.45,0,*40
1494691573.61,29985,15.06,73418.8,0.45,-0.37,-0.41,0,*42
1494691574.79,29986,15.06,73420.8,0.43,-0.41,-0.41,0,*46
1494691575.96,29987,15.0,73418.3,0.43,-0.41,-0.45,0,*43
1494691577.15,29988,15.06,73430.3,0.47,-0.29,-0.29,0,*4C
1494691578.35,29989,15.06,73434.8,0.47,-0.53,-0.53,0,*4D
1494691579.52,29990,15.0,73424.8,0.45,-0.53,-0.61,0,*46
1494691580.72,29991,15.0,73404.5,0.47,-0.53,-0.53,0,*44
1494691581.9,29992,15.0,73422.5,0.45,-0.41,-0.49,0,*4D
1494691583.07,29993,15.06,73430.8,0.43,-0.45,-0.45,0,*42
1494691584.24,29994,15.0,73418.0,0.45,-0.37,-0.49,0,*4A
1494691585.42,29995,15.06,73418.8,0.45,-0.41,-0.49,0,*4A
1494691586.61,29996,15.06,73426.0,0.45,-0.41,-0.41,0,*41
1494691587.8,29997,15.0,73420.8,0.47,-0.53,-0.61,0,*43
1494691589.0,29998,15.06,73426.3,0.47,-0.49,-0.49,0,*4D
1494691590.2,29999,15.0,73428.5,0.47,-0.49,-0.49,0,*4C
1494691591.36,30000,15.0,73432.0,0.45,-0.49,-0.61,0,*45
1494691592.55,30001,15.06,73440.3,0.45,-0.41,-0.41,0,*4E
1494691593.75,30002,15.06,73438.5,0.47,-0.73,-0.65,0,*48
1494691595.0,30003,15.06,73444.8,0.47,-1.01,-1.09,0,*46
1494691596.23,30004,15.06,73440.3,0.45,-0.97,-1.01,0,*75
1494691597.47,30005,15.0,73432.8,0.47,-0.89,-0.97,0,*47
1494691598.69,30006,15.0,73430.5,0.43,-0.89,-0.89,0,*4F
1494691599.9,30007,15.0,73432.8,0.43,-0.89,-0.93,0,*45
1494691601.07,30008,15.06,73432.0,0.43,-0.77,-0.81,0,*48
1494691602.29,30009,15.06,73430.8,0.43,-0.89,-0.93,0,*4B
1494691603.46,30010,15.0,73430.8,0.43,-0.57,-0.57,0,*48
1494691604.62,30011,15.06,73432.8,0.43,-0.69,-0.57,0,*44
1494691605.86,30012,15.06,73434.0,0.41,-0.89,-0.89,0,*48
1494691607.09,30013,15.0,73428.5,0.43,-1.01,-1.05,0,*4F
1494691608.28,30014,15.0,73414.5,0.43,-1.21,-1.21,0,*4C
1494691609.48,30015,15.06,73408.8,0.41,-1.29,-1.29,0,*4F
1494691610.73,30016,15.06,73414.5,0.41,-1.13,-1.13,0,*4C
1494691611.99,30017,15.0,73412.0,0.41,-1.05,-1.05,0,*4D
1494691613.22,30018,15.0,73416.0,0.41,-0.93,-0.89,0,*49
1494691614.42,30019,15.06,73424.0,0.41,-0.77,-0.77,0,*43
1494691615.59,30020,15.06,73426.8,0.39,-0.73,-0.73,0,*46
1494691616.76,30021,15.06,73424.8,0.43,-0.57,-0.57,0,*4A
1494691617.95,30022,15.0,73428.0,0.41,-0.53,-0.65,0,*4E
1494691619.2,30023,15.06,73428.8,0.41,-1.01,-1.01,0,*4A
1494691620.42,30024,15.0,73428.8,0.39,-0.97,-0.93,0,*46
1494691621.6,30025,15.0,73430.5,0.39,-0.73,-0.73,0,*43
1494691622.77,30026,15.06,73430.3,0.39,-0.69,-0.61,0,*48
1494691623.95,30027,15.06,73432.3,0.39,-0.45,-0.49,0,*4D
1494691625.11,30028,15.06,73438.8,0.39,-0.49,-0.57,0,*41
1494691626.29,30029,15.0,73432.8,0.39,-0.69,-0.73,0,*44
1494691627.48,30030,15.0,73430.3,0.41,-0.69,-0.69,0,*48
1494691628.66,30031,15.0,73432.0,0.39,-0.73,-0.73,0,*46
1494691629.84,30032,15.06,73438.5,0.39,-0.73,-0.73,0,*45
1494691631.02,30033,15.06,73438.3,0.39,-0.69,-0.81,0,*42
1494691632.23,30034,15.06,73442.3,0.39,-0.85,-0.85,0,*43
1494691633.46,30035,15.06,73440.3,0.39,-0.97,-1.05,0,*78
1494691634.7,30036,15.06,73436.8,0.39,-1.05,-1.05,0,*41
1494691635.94,30037,15.0,73434.3,0.39,-1.05,-1.05,0,*40
1494691637.17,30038,15.06,73432.3,0.39,-0.97,-1.05,0,*75
1494691638.41,30039,15.06,73428.8,0.37,-0.97,-0.97,0,*40
1494691639.65,30040,15.06,73428.8,0.37,-0.89,-0.97,0,*41
1494691640.87,30041,15.06,73428.8,0.39,-0.85,-0.85,0,*41
1494691642.05,30042,15.0,73422.5,0.39,-0.73,-0.69,0,*49
1494691643.24,30043,15.0,73422.5,0.37,-0.65,-0.65,0,*4D
1494691644.41,30044,15.0,73422.3,0.39,-0.69,-0.69,0,*44
1494691645.59,30045,15.06,73422.5,0.39,-0.81,-0.81,0,*45
1494691646.78,30046,15.06,73420.3,0.37,-0.77,-0.77,0,*48
1494691647.95,30047,15.06,73416.5,0.39,-0.49,-0.57,0,*48
1494691649.13,30048,15.06,73416.3,0.39,-0.37,-0.45,0,*4D
1494691650.3,30049,15.0,73414.5,0.39,-0.37,-0.37,0,*49
1494691651.48,30050,15.0,73414.0,0.39,-0.37,-0.37,0,*41
1494691652.65,30051,15.0,73414.0,0.39,-0.45,-0.49,0,*4C
1494691653.85,30052,15.0,73412.5,0.41,-0.53,-0.57,0,*48
1494691655.04,30053,15.0,73412.8,0.41,-0.65,-0.69,0,*41
1494691656.23,30054,15.06,73416.8,0.41,-0.57,-0.65,0,*4B
1494691657.39,30055,15.0,73416.5,0.43,-0.45,-0.57,0,*4A
1494691658.56,30056,15.06,73422.3,0.39,-0.49,-0.45,0,*4B
1494691659.74,30057,15.0,73420.8,0.39,-0.45,-0.45,0,*46
1494691660.94,30058,15.06,73424.3,0.41,-0.41,-0.41,0,*46
1494691662.14,30059,15.0,73428.0,0.41,-0.41,-0.45,0,*43
1494691663.33,30060,15.0,73430.5,0.41,-0.41,-0.45,0,*49
1494691664.53,30061,15.06,73432.3,0.41,-0.33,-0.41,0,*49
1494691665.73,30062,15.06,73434.5,0.41,-0.41,-0.41,0,*4F
1494691666.93,30063,15.06,73434.5,0.41,-0.41,-0.41,0,*4E
1494691668.1,30064,15.0,73432.0,0.43,-0.33,-0.41,0,*4E
1494691669.31,30065,15.0,73432.5,0.41,-0.41,-0.41,0,*48
1494691670.48,30066,15.0,73432.8,0.43,-0.41,-0.45,0,*4D
1494691671.67,30067,15.06,73436.3,0.41,-0.45,-0.53,0,*4D
1494691672.91,30068,15.06,73440.8,0.41,-0.89,-0.89,0,*45
1494691674.14,30069,15.06,73436.8,0.41,-1.13,-1.21,0,*45
1494691675.39,30070,15.0,73432.3,0.41,-1.43,-1.43,0,*4C
1494691676.64,30071,15.06,73428.3,0.41,-1.13,-1.13,0,*4D
1494691677.86,30072,15.0,73428.0,0.39,-0.97,-0.93,0,*45
1494691679.11,30073,15.0,73426.5,0.37,-1.01,-1.09,0,*46
1494691680.36,30074,15.06,73434.3,0.37,-1.09,-1.09,0,*49
1494691681.58,30075,15.0,73430.8,0.37,-0.77,-0.89,0,*49
1494691682.78,30076,15.0,73428.0,0.39,-0.81,-0.85,0,*41
1494691683.95,30077,15.0,73426.3,0.39,-0.73,-0.73,0,*44
1494691685.15,30078,15.0,73432.8,0.37,-0.77,-0.77,0,*45
1494691686.33,30079,15.0,73434.3,0.39,-0.81,-0.81,0,*4A
1494691687.5,30080,15.0,73430.8,0.39,-0.61,-0.73,0,*4F
1494691688.66,30081,15.0,73430.0,0.39,-0.61,-0.69,0,*45
1494691689.84,30082,15.0,73432.3,0.39,-0.57,-0.57,0,*4E
1494691691.0,30083,15.0,73428.0,0.39,-0.49,-0.57,0,*40
1494691692.18,30084,15.0,73428.8,0.39,-0.57,-0.57,0,*48
1494691693.35,30085,15.0,73430.3,0.39,-0.49,-0.57,0,*46
1494691694.52,30086,15.0,73432.8,0.39,-0.45,-0.45,0,*4A
1494691695.71,30087,15.0,73432.0,0.41,-0.57,-0.57,0,*44
1494691696.9,30088,15.0,73434.3,0.41,-0.45,-0.57,0,*48
1494691698.09,30089,15.0,73436.5,0.41,-0.53,-0.65,0,*4F
1494691699.26,30090,15.0,73436.0,0.43,-0.65,-0.69,0,*4C
1494691700.45,30091,15.0,73432.3,0.41,-0.57,-0.65,0,*42
1494691701.64,30092,15.0,73436.0,0.41,-0.45,-0.65,0,*42
1494691702.83,30093,15.0,73440.0,0.41,-0.45,-0.57,0,*42
1494691704.02,30094,15.0,73442.0,0.41,-0.41,-0.45,0,*42
1494691705.21,30095,15.0,73440.0,0.41,-0.53,-0.65,0,*42